Time,TemperatureF,DewpointF,PressureIn,WindDirection,WindDirectionDegrees,WindSpeedMPH,WindSpeedGustMPH,Humidity,HourlyPrecipIn,Conditions,Clouds,dailyrainin,SoftwareType,DateUTC
2013-09-13 00:01:00,54.5,39.1,30.00,NNE,30,0.0,0.0,56,0.00,,---,0.00,VWS V14.01,2013-09-13 07:01:00,
2013-09-13 00:06:00,54.7,39.3,29.97,NNE,30,0.0,0.0,56,0.00,,---,0.00,VWS V14.01,2013-09-13 07:06:00,
2013-09-13 00:12:00,54.7,40.2,29.97,ENE,64,0.0,0.0,58,0.00,,---,0.00,VWS V14.01,2013-09-13 07:12:00,
2013-09-13 00:17:00,54.5,40.0,29.97,ENE,64,0.0,0.0,58,0.00,,---,0.00,VWS V14.01,2013-09-13 07:17:00,
2013-09-13 00:23:00,54.3,39.9,29.97,ENE,64,0.0,0.0,58,0.00,,---,0.00,VWS V14.01,2013-09-13 07:23:00,
2013-09-13 00:28:00,54.3,39.9,29.97,ENE,64,0.0,0.0,58,0.00,,---,0.00,VWS V14.01,2013-09-13 07:28:00,
2013-09-13 00:33:00,54.3,40.8,29.97,ENE,64,0.0,0.0,60,0.00,,---,0.00,VWS V14.01,2013-09-13 07:33:00,
2013-09-13 00:39:00,54.1,40.6,29.97,ENE,64,0.0,0.0,60,0.00,,---,0.00,VWS V14.01,2013-09-13 07:39:00,
2013-09-13 00:44:00,54.1,40.6,29.97,ENE,64,0.0,0.0,60,0.00,,---,0.00,VWS V14.01,2013-09-13 07:44:00,
2013-09-13 00:49:00,54.0,40.4,29.97,ENE,64,0.0,0.0,60,0.00,,---,0.00,VWS V14.01,2013-09-13 07:49:00,
2013-09-13 00:54:00,53.4,40.7,29.97,ENE,64,0.0,0.0,62,0.00,,---,0.00,VWS V14.01,2013-09-13 07:54:00,
2013-09-13 01:00:00,53.2,40.6,29.97,ENE,64,0.0,0.0,62,0.00,,---,0.00,VWS V14.01,2013-09-13 08:00:00,
2013-09-13 01:06:00,53.2,40.6,29.97,ENE,64,0.0,0.0,62,0.00,,---,0.00,VWS V14.01,2013-09-13 08:06:00,
2013-09-13 01:12:00,52.9,40.2,29.97,ENE,64,0.0,0.0,62,0.00,,---,0.00,VWS V14.01,2013-09-13 08:12:00,
2013-09-13 01:17:00,52.7,40.9,29.97,ENE,64,0.0,0.0,64,0.00,,---,0.00,VWS V14.01,2013-09-13 08:17:00,
2013-09-13 01:22:00,52.7,40.9,29.97,ENE,64,0.0,0.0,64,0.00,,---,0.00,VWS V14.01,2013-09-13 08:22:00,
2013-09-13 01:28:00,52.7,41.7,29.97,ENE,64,0.0,0.0,66,0.00,,---,0.00,VWS V14.01,2013-09-13 08:28:00,
2013-09-13 01:33:00,52.5,41.5,29.97,ENE,64,0.0,0.0,66,0.00,,---,0.00,VWS V14.01,2013-09-13 08:33:00,
2013-09-13 01:38:00,52.2,41.2,29.97,ENE,64,0.0,0.0,66,0.00,,---,0.00,VWS V14.01,2013-09-13 08:38:00,
2013-09-13 01:44:00,52.0,41.0,29.97,ENE,64,0.0,0.0,66,0.00,,---,0.00,VWS V14.01,2013-09-13 08:44:00,
2013-09-13 01:50:00,51.8,41.6,29.97,ENE,64,0.0,0.0,68,0.00,,---,0.00,VWS V14.01,2013-09-13 08:50:00,
2013-09-13 01:56:00,51.8,41.6,29.97,ENE,64,0.0,0.0,68,0.00,,---,0.00,VWS V14.01,2013-09-13 08:56:00,
2013-09-13 02:01:00,51.8,42.3,29.97,ESE,112,0.0,0.0,70,0.00,,---,0.00,VWS V14.01,2013-09-13 09:01:00,
2013-09-13 02:07:00,51.6,42.2,29.97,ESE,113,0.0,0.0,70,0.00,,---,0.00,VWS V14.01,2013-09-13 09:07:00,
2013-09-13 02:12:00,51.3,42.5,29.97,ESE,113,0.0,0.0,72,0.00,,---,0.00,VWS V14.01,2013-09-13 09:12:00,
2013-09-13 02:17:00,50.9,42.2,29.97,ESE,112,0.0,0.0,72,0.00,,---,0.00,VWS V14.01,2013-09-13 09:17:00,
2013-09-13 02:23:00,50.9,42.2,29.97,ESE,112,0.0,0.0,72,0.00,,---,0.00,VWS V14.01,2013-09-13 09:23:00,
2013-09-13 02:29:00,51.1,42.4,29.97,ESE,112,0.0,0.0,72,0.00,,---,0.00,VWS V14.01,2013-09-13 09:29:00,
2013-09-13 02:35:00,51.1,42.4,29.97,ESE,112,0.0,0.0,72,0.00,,---,0.00,VWS V14.01,2013-09-13 09:35:00,
2013-09-13 02:40:00,50.9,42.2,29.97,SSE,148,0.0,0.0,72,0.00,,---,0.00,VWS V14.01,2013-09-13 09:40:00,
2013-09-13 02:46:00,50.7,42.0,29.97,ENE,62,0.0,0.0,72,0.00,,---,0.00,VWS V14.01,2013-09-13 09:46:00,
2013-09-13 02:51:00,50.5,42.6,29.97,NE,39,0.0,0.0,74,0.00,,---,0.00,VWS V14.01,2013-09-13 09:51:00,
2013-09-13 02:56:00,50.4,42.4,29.97,NE,39,0.0,0.0,74,0.00,,---,0.00,VWS V14.01,2013-09-13 09:56:00,
2013-09-13 03:01:00,50.2,42.2,29.97,NE,39,0.0,0.0,74,0.00,,---,0.00,VWS V14.01,2013-09-13 10:01:00,
2013-09-13 03:06:00,50.2,42.2,29.94,NE,39,0.0,0.0,74,0.00,,---,0.00,VWS V14.01,2013-09-13 10:06:00,
2013-09-13 03:12:00,50.2,42.2,29.94,NE,39,0.0,0.0,74,0.00,,---,0.00,VWS V14.01,2013-09-13 10:12:00,
2013-09-13 03:17:00,50.2,42.2,29.94,NE,39,0.0,0.0,74,0.00,,---,0.00,VWS V14.01,2013-09-13 10:17:00,
2013-09-13 03:22:00,50.2,42.2,29.94,NE,39,0.0,0.0,74,0.00,,---,0.00,VWS V14.01,2013-09-13 10:22:00,
2013-09-13 03:27:00,50.0,42.0,29.94,NE,39,0.0,0.0,74,0.00,,---,0.00,VWS V14.01,2013-09-13 10:27:00,
2013-09-13 03:32:00,49.8,42.6,29.94,NE,39,0.0,0.0,76,0.00,,---,0.00,VWS V14.01,2013-09-13 10:32:00,
2013-09-13 03:38:00,49.8,42.6,29.94,NE,39,0.0,0.0,76,0.00,,---,0.00,VWS V14.01,2013-09-13 10:38:00,
2013-09-13 03:43:00,49.6,42.4,29.94,NE,39,0.0,0.0,76,0.00,,---,0.00,VWS V14.01,2013-09-13 10:43:00,
2013-09-13 03:49:00,49.3,42.0,29.94,NE,39,0.0,0.0,76,0.00,,---,0.00,VWS V14.01,2013-09-13 10:49:00,
2013-09-13 03:54:00,49.5,42.2,29.94,NE,39,0.0,0.0,76,0.00,,---,0.00,VWS V14.01,2013-09-13 10:54:00,
2013-09-13 04:00:00,49.5,42.2,29.94,NE,39,0.0,0.0,76,0.00,,---,0.00,VWS V14.01,2013-09-13 11:00:00,
2013-09-13 04:05:00,49.5,42.2,29.94,NE,39,0.0,0.0,76,0.00,,---,0.00,VWS V14.01,2013-09-13 11:05:00,
2013-09-13 04:11:00,49.3,42.0,29.94,NE,39,0.0,0.0,76,0.00,,---,0.00,VWS V14.01,2013-09-13 11:11:00,
2013-09-13 04:16:00,49.1,41.9,29.94,NE,39,0.0,0.0,76,0.00,,---,0.00,VWS V14.01,2013-09-13 11:16:00,
2013-09-13 04:22:00,49.1,41.9,29.94,ESE,103,0.0,0.0,76,0.00,,---,0.00,VWS V14.01,2013-09-13 11:22:00,
2013-09-13 04:27:00,49.1,41.9,29.94,ESE,117,0.0,0.0,76,0.00,,---,0.00,VWS V14.01,2013-09-13 11:27:00,
2013-09-13 04:33:00,49.1,41.9,29.94,ENE,72,3.1,3.6,76,0.00,,---,0.00,VWS V14.01,2013-09-13 11:33:00,
2013-09-13 04:38:00,48.9,41.7,29.94,East,81,0.0,0.0,76,0.00,,---,0.00,VWS V14.01,2013-09-13 11:38:00,
2013-09-13 04:44:00,48.9,41.7,29.94,East,81,0.0,0.0,76,0.00,,---,0.00,VWS V14.01,2013-09-13 11:44:00,
2013-09-13 04:49:00,48.7,41.5,29.94,East,81,0.0,0.0,76,0.00,,---,0.00,VWS V14.01,2013-09-13 11:49:00,
2013-09-13 04:55:00,48.7,41.5,29.94,East,81,0.0,0.0,76,0.00,,---,0.00,VWS V14.01,2013-09-13 11:55:00,
2013-09-13 05:01:00,48.7,41.5,29.94,East,81,0.0,0.0,76,0.00,,---,0.00,VWS V14.01,2013-09-13 12:01:00,
2013-09-13 05:07:00,48.7,41.5,29.94,East,81,0.0,0.0,76,0.00,,---,0.00,VWS V14.01,2013-09-13 12:07:00,
2013-09-13 05:12:00,48.7,41.5,29.94,SSE,154,0.0,0.0,76,0.00,,---,0.00,VWS V14.01,2013-09-13 12:12:00,
2013-09-13 05:18:00,48.6,41.3,29.94,SSE,154,0.0,0.0,76,0.00,,---,0.00,VWS V14.01,2013-09-13 12:18:00,
2013-09-13 05:23:00,48.6,41.3,29.94,SSE,154,0.0,0.0,76,0.00,,---,0.00,VWS V14.01,2013-09-13 12:23:00,
2013-09-13 05:28:00,48.6,41.3,29.94,SSE,154,0.0,0.0,76,0.00,,---,0.00,VWS V14.01,2013-09-13 12:28:00,
2013-09-13 05:34:00,48.4,41.2,29.94,SE,126,0.0,0.0,76,0.00,,---,0.00,VWS V14.01,2013-09-13 12:34:00,
2013-09-13 05:41:00,48.4,41.8,29.94,SE,127,0.0,0.0,78,0.00,,---,0.00,VWS V14.01,2013-09-13 12:41:00,
2013-09-13 05:46:00,48.4,41.8,29.94,SE,127,0.0,0.0,78,0.00,,---,0.00,VWS V14.01,2013-09-13 12:46:00,
2013-09-13 05:51:00,48.0,41.5,29.94,SE,127,0.0,0.0,78,0.00,,---,0.00,VWS V14.01,2013-09-13 12:51:00,
2013-09-13 05:57:00,47.8,41.3,29.94,SE,127,0.0,0.0,78,0.00,,---,0.00,VWS V14.01,2013-09-13 12:57:00,
2013-09-13 06:02:00,48.0,41.5,29.94,SE,127,0.0,0.0,78,0.00,,---,0.00,VWS V14.01,2013-09-13 13:02:00,
2013-09-13 06:08:00,48.4,41.8,29.94,ESE,106,0.0,0.0,78,0.00,,---,0.00,VWS V14.01,2013-09-13 13:08:00,
2013-09-13 06:13:00,48.6,42.0,29.94,East,86,0.0,0.0,78,0.00,,---,0.00,VWS V14.01,2013-09-13 13:13:00,
2013-09-13 06:19:00,48.4,41.8,29.94,SE,137,0.0,0.0,78,0.00,,---,0.00,VWS V14.01,2013-09-13 13:19:00,
2013-09-13 06:25:00,48.0,41.5,29.94,SE,137,0.0,0.0,78,0.00,,---,0.00,VWS V14.01,2013-09-13 13:25:00,
2013-09-13 06:31:00,47.8,41.3,29.94,SE,142,0.0,0.0,78,0.00,,---,0.00,VWS V14.01,2013-09-13 13:31:00,
2013-09-13 06:36:00,47.7,41.2,29.94,SE,142,0.0,0.0,78,0.00,,---,0.00,VWS V14.01,2013-09-13 13:36:00,
2013-09-13 06:42:00,47.7,41.2,29.94,SE,144,0.0,0.0,78,0.00,,---,0.00,VWS V14.01,2013-09-13 13:42:00,
2013-09-13 06:48:00,47.8,41.3,29.94,SSE,149,0.0,0.0,78,0.00,,---,0.00,VWS V14.01,2013-09-13 13:48:00,
2013-09-13 06:54:00,48.0,41.5,29.94,SE,142,3.1,3.6,78,0.00,,---,0.00,VWS V14.01,2013-09-13 13:54:00,
2013-09-13 06:59:00,48.4,41.8,29.94,SE,133,0.0,0.0,78,0.00,,---,0.00,VWS V14.01,2013-09-13 13:59:00,
2013-09-13 07:05:00,48.7,42.2,29.94,SSE,168,0.0,0.0,78,0.00,,---,0.00,VWS V14.01,2013-09-13 14:05:00,
2013-09-13 07:11:00,49.1,42.5,29.94,SSE,168,0.0,0.0,78,0.00,,---,0.00,VWS V14.01,2013-09-13 14:11:00,
2013-09-13 07:16:00,49.6,43.1,29.94,South,189,0.0,0.0,78,0.00,,---,0.00,VWS V14.01,2013-09-13 14:16:00,
2013-09-13 07:21:00,50.4,43.8,29.94,South,189,0.0,0.0,78,0.00,,---,0.00,VWS V14.01,2013-09-13 14:21:00,
2013-09-13 07:26:00,51.3,44.6,29.94,SW,218,0.0,0.0,78,0.00,,---,0.00,VWS V14.01,2013-09-13 14:26:00,
2013-09-13 07:31:00,52.2,45.5,29.94,West,271,0.0,0.0,78,0.00,,---,0.00,VWS V14.01,2013-09-13 14:31:00,
2013-09-13 07:37:00,53.6,46.9,29.94,WNW,289,0.0,0.0,78,0.00,,---,0.00,VWS V14.01,2013-09-13 14:37:00,
2013-09-13 07:42:00,54.7,48.0,29.94,WNW,289,0.0,0.0,78,0.00,,---,0.00,VWS V14.01,2013-09-13 14:42:00,
2013-09-13 07:47:00,55.8,48.3,29.94,ENE,70,0.0,0.0,76,0.00,,---,0.00,VWS V14.01,2013-09-13 14:47:00,
2013-09-13 07:53:00,57.2,49.0,29.94,ENE,70,0.0,0.0,74,0.00,,---,0.00,VWS V14.01,2013-09-13 14:53:00,
2013-09-13 07:58:00,58.5,49.5,29.94,ENE,70,0.0,0.0,72,0.00,,---,0.00,VWS V14.01,2013-09-13 14:58:00,
2013-09-13 08:04:00,59.7,50.7,29.94,ENE,70,0.0,0.0,72,0.00,,---,0.00,VWS V14.01,2013-09-13 15:04:00,
2013-09-13 08:09:00,61.0,51.1,29.94,ENE,70,0.0,0.0,70,0.00,,---,0.00,VWS V14.01,2013-09-13 15:09:00,
2013-09-13 08:15:00,62.2,51.6,29.94,East,85,0.0,0.0,68,0.00,,---,0.00,VWS V14.01,2013-09-13 15:15:00,
2013-09-13 08:20:00,63.9,53.1,29.94,East,85,0.0,0.0,68,0.00,,---,0.00,VWS V14.01,2013-09-13 15:20:00,
2013-09-13 08:26:00,65.3,52.8,29.94,NE,49,0.0,0.0,64,0.00,,---,0.00,VWS V14.01,2013-09-13 15:26:00,
2013-09-13 08:31:00,66.2,51.0,29.94,North,353,0.0,0.0,58,0.00,,---,0.00,VWS V14.01,2013-09-13 15:31:00,
2013-09-13 08:37:00,67.5,50.2,29.94,North,353,0.0,0.0,54,0.00,,---,0.00,VWS V14.01,2013-09-13 15:37:00,
2013-09-13 08:42:00,68.5,50.2,29.94,North,350,0.0,0.0,52,0.00,,---,0.00,VWS V14.01,2013-09-13 15:42:00,
2013-09-13 08:48:00,70.0,50.5,29.94,NNW,346,0.0,0.0,50,0.00,,---,0.00,VWS V14.01,2013-09-13 15:48:00,
2013-09-13 08:54:00,71.4,51.8,29.94,SSE,154,0.0,0.0,50,0.00,,---,0.00,VWS V14.01,2013-09-13 15:54:00,
2013-09-13 09:00:00,72.7,50.7,29.94,SSE,154,0.0,0.0,46,0.00,,---,0.00,VWS V14.01,2013-09-13 16:00:00,
2013-09-13 09:05:00,73.8,51.7,29.94,SSE,154,0.0,0.0,46,0.00,,---,0.00,VWS V14.01,2013-09-13 16:05:00,
2013-09-13 09:10:00,75.0,51.7,29.94,South,180,0.0,0.0,44,0.00,,---,0.00,VWS V14.01,2013-09-13 16:10:00,
2013-09-13 09:16:00,76.5,51.7,29.94,South,183,0.0,0.0,42,0.00,,---,0.00,VWS V14.01,2013-09-13 16:16:00,
2013-09-13 09:22:00,77.5,51.3,29.94,South,184,3.6,3.6,40,0.00,,---,0.00,VWS V14.01,2013-09-13 16:22:00,
2013-09-13 09:28:00,79.0,52.6,29.94,SSE,167,3.1,4.0,40,0.00,,---,0.00,VWS V14.01,2013-09-13 16:28:00,
2013-09-13 09:34:00,80.1,49.2,29.94,South,182,5.4,5.4,34,0.00,,---,0.00,VWS V14.01,2013-09-13 16:34:00,
2013-09-13 09:39:00,81.0,44.8,29.94,South,178,6.3,6.3,28,0.00,,---,0.00,VWS V14.01,2013-09-13 16:39:00,
2013-09-13 09:45:00,82.2,45.9,29.94,South,171,3.6,4.5,28,0.00,,---,0.00,VWS V14.01,2013-09-13 16:45:00,
2013-09-13 09:51:00,83.3,46.8,29.94,SW,220,5.4,5.4,28,0.00,,---,0.00,VWS V14.01,2013-09-13 16:51:00,
2013-09-13 09:57:00,83.8,47.3,29.94,West,263,2.7,6.3,28,0.00,,---,0.00,VWS V14.01,2013-09-13 16:57:00,
2013-09-13 10:02:00,84.2,45.6,29.94,SSE,167,3.1,5.4,26,0.00,,---,0.00,VWS V14.01,2013-09-13 17:02:00,
2013-09-13 10:08:00,84.7,46.1,29.94,SSW,211,4.0,5.8,26,0.00,,---,0.00,VWS V14.01,2013-09-13 17:08:00,
2013-09-13 10:14:00,85.5,46.7,29.94,WSW,245,7.6,7.6,26,0.00,,---,0.00,VWS V14.01,2013-09-13 17:14:00,
2013-09-13 10:20:00,85.5,46.7,29.94,WSW,258,4.9,5.4,26,0.00,,---,0.00,VWS V14.01,2013-09-13 17:20:00,
2013-09-13 10:25:00,86.2,47.3,29.94,SSW,208,4.9,5.8,26,0.00,,---,0.00,VWS V14.01,2013-09-13 17:25:00,
2013-09-13 10:31:00,86.9,47.9,29.94,SSE,168,4.0,6.3,26,0.00,,---,0.00,VWS V14.01,2013-09-13 17:31:00,
2013-09-13 10:36:00,87.3,48.2,29.94,SW,227,5.4,7.6,26,0.00,,---,0.00,VWS V14.01,2013-09-13 17:36:00,
2013-09-13 10:42:00,87.6,48.5,29.94,SW,225,8.1,8.3,26,0.00,,---,0.00,VWS V14.01,2013-09-13 17:42:00,
2013-09-13 10:47:00,88.0,48.8,29.94,SW,231,5.4,7.6,26,0.00,,---,0.00,VWS V14.01,2013-09-13 17:47:00,
2013-09-13 10:53:00,88.5,49.3,29.91,SW,230,11.0,11.0,26,0.00,,---,0.00,VWS V14.01,2013-09-13 17:53:00,
2013-09-13 10:58:00,88.2,49.0,29.91,WSW,252,6.3,6.3,26,0.00,,---,0.00,VWS V14.01,2013-09-13 17:58:00,
2013-09-13 11:04:00,88.0,48.8,29.91,SSW,196,8.3,8.3,26,0.00,,---,0.00,VWS V14.01,2013-09-13 18:04:00,
2013-09-13 11:09:00,88.7,49.5,29.91,SW,225,8.7,8.7,26,0.00,,---,0.00,VWS V14.01,2013-09-13 18:09:00,
2013-09-13 11:15:00,89.1,49.8,29.91,SSW,211,8.1,10.1,26,0.00,,---,0.00,VWS V14.01,2013-09-13 18:15:00,
2013-09-13 11:21:00,88.9,49.6,29.91,West,263,5.4,6.3,26,0.00,,---,0.00,VWS V14.01,2013-09-13 18:21:00,
2013-09-13 11:27:00,88.2,49.0,29.91,WNW,289,4.0,5.4,26,0.00,,---,0.00,VWS V14.01,2013-09-13 18:27:00,
2013-09-13 11:33:00,88.7,49.5,29.91,WSW,256,7.6,7.6,26,0.00,,---,0.00,VWS V14.01,2013-09-13 18:33:00,
2013-09-13 11:38:00,88.5,49.3,29.91,West,277,5.8,7.2,26,0.00,,---,0.00,VWS V14.01,2013-09-13 18:38:00,
2013-09-13 11:44:00,89.1,49.8,29.91,WSW,240,8.3,10.1,26,0.00,,---,0.00,VWS V14.01,2013-09-13 18:44:00,
2013-09-13 11:49:00,88.5,49.3,29.91,WNW,289,10.5,10.5,26,0.00,,---,0.00,VWS V14.01,2013-09-13 18:49:00,
2013-09-13 11:55:00,88.2,49.0,29.91,West,260,11.9,11.9,26,0.00,,---,0.00,VWS V14.01,2013-09-13 18:55:00,
2013-09-13 12:02:00,88.9,49.6,29.91,West,267,10.5,13.6,26,0.00,,---,0.00,VWS V14.01,2013-09-13 19:02:00,
2013-09-13 12:10:00,88.3,49.1,29.91,West,273,8.1,10.5,26,0.00,,---,0.00,VWS V14.01,2013-09-13 19:10:00,
2013-09-13 12:15:00,89.2,49.9,29.91,WSW,257,10.1,11.0,26,0.00,,---,0.00,VWS V14.01,2013-09-13 19:15:00,
2013-09-13 12:20:00,89.4,50.0,29.91,West,266,7.6,10.5,26,0.00,,---,0.00,VWS V14.01,2013-09-13 19:20:00,
2013-09-13 12:26:00,89.8,48.2,29.91,WSW,244,6.3,12.8,24,0.00,,---,0.00,VWS V14.01,2013-09-13 19:26:00,
2013-09-13 12:32:00,88.3,49.1,29.91,WNW,290,5.4,8.3,26,0.00,,---,0.00,VWS V14.01,2013-09-13 19:32:00,
2013-09-13 12:37:00,88.9,49.6,29.91,SW,231,11.0,12.8,26,0.00,,---,0.00,VWS V14.01,2013-09-13 19:37:00,
2013-09-13 12:43:00,89.2,49.9,29.91,NW,310,8.3,8.3,26,0.00,,---,0.00,VWS V14.01,2013-09-13 19:43:00,
2013-09-13 12:48:00,89.1,49.8,29.91,WSW,247,10.5,10.5,26,0.00,,---,0.00,VWS V14.01,2013-09-13 19:48:00,
2013-09-13 12:54:00,89.2,49.9,29.88,WNW,285,8.1,12.8,26,0.00,,---,0.00,VWS V14.01,2013-09-13 19:54:00,
2013-09-13 12:59:00,89.1,49.8,29.88,WNW,296,7.6,13.2,26,0.00,,---,0.00,VWS V14.01,2013-09-13 19:59:00,
2013-09-13 13:05:00,88.7,49.5,29.88,NW,307,8.7,8.7,26,0.00,,---,0.00,VWS V14.01,2013-09-13 20:05:00,
2013-09-13 13:11:00,88.7,49.5,29.88,West,266,8.1,11.0,26,0.00,,---,0.00,VWS V14.01,2013-09-13 20:11:00,
2013-09-13 13:17:00,89.6,48.1,29.88,WSW,256,8.1,11.0,24,0.00,,---,0.00,VWS V14.01,2013-09-13 20:17:00,
2013-09-13 13:22:00,90.1,48.5,29.88,West,263,10.1,13.6,24,0.00,,---,0.00,VWS V14.01,2013-09-13 20:22:00,
2013-09-13 13:27:00,89.8,48.2,29.88,WSW,258,8.1,11.0,24,0.00,,---,0.00,VWS V14.01,2013-09-13 20:27:00,
2013-09-13 13:33:00,90.5,48.8,29.88,WNW,283,7.6,11.0,24,0.00,,---,0.00,VWS V14.01,2013-09-13 20:33:00,
2013-09-13 13:39:00,90.0,48.4,29.88,WSW,247,12.8,13.2,24,0.00,,---,0.00,VWS V14.01,2013-09-13 20:39:00,
2013-09-13 13:44:00,89.6,48.1,29.88,WNW,282,5.4,8.3,24,0.00,,---,0.00,VWS V14.01,2013-09-13 20:44:00,
2013-09-13 13:50:00,90.0,48.4,29.88,SW,222,5.4,10.1,24,0.00,,---,0.00,VWS V14.01,2013-09-13 20:50:00,
2013-09-13 13:55:00,89.4,50.0,29.88,West,271,7.6,7.6,26,0.00,,---,0.00,VWS V14.01,2013-09-13 20:55:00,
2013-09-13 14:01:00,90.0,48.4,29.88,West,263,10.1,13.2,24,0.00,,---,0.00,VWS V14.01,2013-09-13 21:01:00,
2013-09-13 14:06:00,89.6,48.1,29.88,WSW,244,8.1,8.7,24,0.00,,---,0.00,VWS V14.01,2013-09-13 21:06:00,
2013-09-13 14:12:00,90.1,48.5,29.88,West,265,13.2,15.0,24,0.00,,---,0.00,VWS V14.01,2013-09-13 21:12:00,
2013-09-13 14:17:00,90.1,48.5,29.88,West,268,13.2,13.2,24,0.00,,---,0.00,VWS V14.01,2013-09-13 21:17:00,
2013-09-13 14:23:00,89.2,49.9,29.85,West,266,7.6,8.7,26,0.00,,---,0.00,VWS V14.01,2013-09-13 21:23:00,
2013-09-13 14:29:00,89.8,48.2,29.85,WNW,284,8.3,11.9,24,0.00,,---,0.00,VWS V14.01,2013-09-13 21:29:00,
2013-09-13 14:34:00,89.4,50.0,29.85,West,275,8.7,9.2,26,0.00,,---,0.00,VWS V14.01,2013-09-13 21:34:00,
2013-09-13 14:40:00,90.0,48.4,29.85,WNW,297,8.3,13.6,24,0.00,,---,0.00,VWS V14.01,2013-09-13 21:40:00,
2013-09-13 14:45:00,90.7,49.0,29.85,West,262,12.8,15.4,24,0.00,,---,0.00,VWS V14.01,2013-09-13 21:45:00,
2013-09-13 14:50:00,90.1,48.5,29.85,SW,215,11.9,12.8,24,0.00,,---,0.00,VWS V14.01,2013-09-13 21:50:00,
2013-09-13 14:55:00,89.8,48.2,29.85,NW,317,10.5,12.8,24,0.00,,---,0.00,VWS V14.01,2013-09-13 21:55:00,
2013-09-13 15:01:00,90.5,48.8,29.85,WSW,250,8.7,12.8,24,0.00,,---,0.00,VWS V14.01,2013-09-13 22:01:00,
2013-09-13 15:07:00,91.4,49.6,29.85,West,276,12.3,13.2,24,0.00,,---,0.00,VWS V14.01,2013-09-13 22:07:00,
2013-09-13 15:12:00,90.7,49.0,29.85,West,265,10.5,12.8,24,0.00,,---,0.00,VWS V14.01,2013-09-13 22:12:00,
2013-09-13 15:18:00,90.5,48.8,29.85,WNW,300,5.4,8.7,24,0.00,,---,0.00,VWS V14.01,2013-09-13 22:18:00,
2013-09-13 15:24:00,89.6,48.1,29.85,West,270,8.7,8.7,24,0.00,,---,0.00,VWS V14.01,2013-09-13 22:24:00,
2013-09-13 15:29:00,89.8,48.2,29.85,WNW,285,10.5,11.0,24,0.00,,---,0.00,VWS V14.01,2013-09-13 22:29:00,
2013-09-13 15:35:00,90.7,49.0,29.85,West,275,7.6,9.2,24,0.00,,---,0.00,VWS V14.01,2013-09-13 22:35:00,
2013-09-13 15:41:00,90.3,48.7,29.85,WSW,258,8.7,10.5,24,0.00,,---,0.00,VWS V14.01,2013-09-13 22:41:00,
2013-09-13 15:46:00,89.8,48.2,29.85,West,263,5.8,8.3,24,0.00,,---,0.00,VWS V14.01,2013-09-13 22:46:00,
2013-09-13 15:51:00,89.6,48.1,29.85,West,266,13.2,13.6,24,0.00,,---,0.00,VWS V14.01,2013-09-13 22:51:00,
2013-09-13 15:57:00,89.1,49.8,29.85,WNW,295,8.3,13.2,26,0.00,,---,0.00,VWS V14.01,2013-09-13 22:57:00,
2013-09-13 16:03:00,89.2,49.9,29.85,WSW,249,7.6,8.7,26,0.00,,---,0.00,VWS V14.01,2013-09-13 23:03:00,
2013-09-13 16:09:00,89.4,50.0,29.85,West,279,6.3,8.7,26,0.00,,---,0.00,VWS V14.01,2013-09-13 23:09:00,
2013-09-13 16:14:00,89.8,48.2,29.85,WSW,251,10.1,13.2,24,0.00,,---,0.00,VWS V14.01,2013-09-13 23:14:00,
2013-09-13 16:19:00,89.4,50.0,29.85,WSW,245,10.5,10.5,26,0.00,,---,0.00,VWS V14.01,2013-09-13 23:19:00,
2013-09-13 16:24:00,88.5,49.3,29.85,West,260,7.6,8.3,26,0.00,,---,0.00,VWS V14.01,2013-09-13 23:24:00,
2013-09-13 16:30:00,88.3,49.1,29.85,WSW,250,8.3,12.8,26,0.00,,---,0.00,VWS V14.01,2013-09-13 23:30:00,
2013-09-13 16:36:00,88.9,49.6,29.85,West,265,10.5,11.0,26,0.00,,---,0.00,VWS V14.01,2013-09-13 23:36:00,
2013-09-13 16:42:00,88.7,49.5,29.85,West,275,6.7,10.5,26,0.00,,---,0.00,VWS V14.01,2013-09-13 23:42:00,
2013-09-13 16:48:00,87.8,48.7,29.85,WNW,288,7.6,12.3,26,0.00,,---,0.00,VWS V14.01,2013-09-13 23:48:00,
2013-09-13 16:53:00,87.6,48.5,29.85,WSW,254,11.0,11.0,26,0.00,,---,0.00,VWS V14.01,2013-09-13 23:53:00,
2013-09-13 16:59:00,87.8,48.7,29.85,WSW,258,12.3,12.8,26,0.00,,---,0.00,VWS V14.01,2013-09-13 23:59:00,
2013-09-13 17:04:00,87.6,48.5,29.85,WNW,283,10.1,10.1,26,0.00,,---,0.00,VWS V14.01,2013-09-14 00:04:00,
2013-09-13 17:10:00,86.9,47.9,29.85,West,266,6.3,8.1,26,0.00,,---,0.00,VWS V14.01,2013-09-14 00:10:00,
2013-09-13 17:16:00,86.4,47.5,29.85,WNW,295,8.3,10.1,26,0.00,,---,0.00,VWS V14.01,2013-09-14 00:16:00,
2013-09-13 17:22:00,85.8,47.0,29.85,WNW,287,8.7,8.7,26,0.00,,---,0.00,VWS V14.01,2013-09-14 00:22:00,
2013-09-13 17:27:00,85.8,47.0,29.85,West,266,11.0,11.0,26,0.00,,---,0.00,VWS V14.01,2013-09-14 00:27:00,
2013-09-13 17:33:00,85.8,47.0,29.85,West,269,10.1,10.1,26,0.00,,---,0.00,VWS V14.01,2013-09-14 00:33:00,
2013-09-13 17:38:00,85.1,46.4,29.85,WNW,284,6.3,7.6,26,0.00,,---,0.00,VWS V14.01,2013-09-14 00:38:00,
2013-09-13 17:44:00,84.4,45.8,29.85,WNW,301,6.3,6.3,26,0.00,,---,0.00,VWS V14.01,2013-09-14 00:44:00,
2013-09-13 17:49:00,83.7,47.1,29.85,WNW,297,6.7,10.1,28,0.00,,---,0.00,VWS V14.01,2013-09-14 00:49:00,
2013-09-13 17:55:00,83.7,47.1,29.85,WNW,287,7.6,8.7,28,0.00,,---,0.00,VWS V14.01,2013-09-14 00:55:00,
2013-09-13 18:01:00,83.8,47.3,29.85,WNW,290,5.8,6.3,28,0.00,,---,0.00,VWS V14.01,2013-09-14 01:01:00,
2013-09-13 18:06:00,83.1,46.7,29.85,West,267,10.1,10.1,28,0.00,,---,0.00,VWS V14.01,2013-09-14 01:06:00,
2013-09-13 18:12:00,82.6,46.2,29.85,West,273,8.3,10.1,28,0.00,,---,0.00,VWS V14.01,2013-09-14 01:12:00,
2013-09-13 18:17:00,82.2,45.9,29.85,NW,307,6.3,6.3,28,0.00,,---,0.00,VWS V14.01,2013-09-14 01:17:00,
2013-09-13 18:22:00,81.9,45.6,29.85,West,278,5.4,5.4,28,0.00,,---,0.00,VWS V14.01,2013-09-14 01:22:00,
2013-09-13 18:28:00,81.7,45.4,29.85,West,269,5.8,5.8,28,0.00,,---,0.00,VWS V14.01,2013-09-14 01:28:00,
2013-09-13 18:34:00,81.0,44.8,29.85,WNW,285,4.9,6.3,28,0.00,,---,0.00,VWS V14.01,2013-09-14 01:34:00,
2013-09-13 18:39:00,80.1,40.1,29.85,WNW,288,5.8,5.8,24,0.00,,---,0.00,VWS V14.01,2013-09-14 01:39:00,
2013-09-13 18:45:00,79.5,39.6,29.85,WNW,283,4.0,4.9,24,0.00,,---,0.00,VWS V14.01,2013-09-14 01:45:00,
2013-09-13 18:50:00,79.2,39.3,29.85,West,274,4.9,5.4,24,0.00,,---,0.00,VWS V14.01,2013-09-14 01:50:00,
2013-09-13 18:55:00,79.0,39.2,29.85,West,276,4.9,5.4,24,0.00,,---,0.00,VWS V14.01,2013-09-14 01:55:00,
2013-09-13 19:01:00,78.3,40.6,29.85,West,267,4.0,5.4,26,0.00,,---,0.00,VWS V14.01,2013-09-14 02:01:00,
2013-09-13 19:07:00,77.4,39.8,29.85,WNW,285,3.6,4.9,26,0.00,,---,0.00,VWS V14.01,2013-09-14 02:07:00,
2013-09-13 19:13:00,76.6,39.2,29.85,West,271,3.1,3.1,26,0.00,,---,0.00,VWS V14.01,2013-09-14 02:13:00,
2013-09-13 19:18:00,76.1,38.8,29.85,West,266,0.0,0.0,26,0.00,,---,0.00,VWS V14.01,2013-09-14 02:18:00,
2013-09-13 19:24:00,75.4,38.2,29.85,WSW,254,0.0,0.0,26,0.00,,---,0.00,VWS V14.01,2013-09-14 02:24:00,
2013-09-13 19:29:00,74.8,37.7,29.85,SW,236,0.0,0.0,26,0.00,,---,0.00,VWS V14.01,2013-09-14 02:29:00,
2013-09-13 19:35:00,74.5,37.4,29.85,SE,140,3.1,4.0,26,0.00,,---,0.00,VWS V14.01,2013-09-14 02:35:00,
2013-09-13 19:40:00,73.9,36.9,29.85,SSE,154,3.6,3.6,26,0.00,,---,0.00,VWS V14.01,2013-09-14 02:40:00,
2013-09-13 19:46:00,73.6,36.6,29.85,SSE,155,2.7,2.7,26,0.00,,---,0.00,VWS V14.01,2013-09-14 02:46:00,
2013-09-13 19:51:00,73.0,38.0,29.85,SE,130,3.6,4.0,28,0.00,,---,0.00,VWS V14.01,2013-09-14 02:51:00,
2013-09-13 19:56:00,72.3,37.4,29.85,SE,124,3.1,3.1,28,0.00,,---,0.00,VWS V14.01,2013-09-14 02:56:00,
2013-09-13 20:02:00,72.0,37.1,29.85,SE,126,2.7,3.1,28,0.00,,---,0.00,VWS V14.01,2013-09-14 03:02:00,
2013-09-13 20:08:00,71.4,36.7,29.85,SE,126,3.1,3.1,28,0.00,,---,0.00,VWS V14.01,2013-09-14 03:08:00,
2013-09-13 20:13:00,70.7,36.0,29.85,NE,56,2.7,2.7,28,0.00,,---,0.00,VWS V14.01,2013-09-14 03:13:00,
2013-09-13 20:18:00,69.6,36.8,29.85,ENE,58,3.6,3.6,30,0.00,,---,0.00,VWS V14.01,2013-09-14 03:18:00,
2013-09-13 20:23:00,68.9,36.2,29.85,NNE,30,3.1,3.1,30,0.00,,---,0.00,VWS V14.01,2013-09-14 03:23:00,
2013-09-13 20:29:00,67.1,37.8,29.85,NNW,346,4.0,5.4,34,0.00,,---,0.00,VWS V14.01,2013-09-14 03:29:00,
2013-09-13 20:35:00,66.9,37.7,29.85,North,353,2.7,2.7,34,0.00,,---,0.00,VWS V14.01,2013-09-14 03:35:00,
2013-09-13 20:40:00,66.9,37.7,29.88,NE,49,5.4,5.4,34,0.00,,---,0.00,VWS V14.01,2013-09-14 03:40:00,
2013-09-13 20:46:00,67.1,37.8,29.88,ENE,78,0.0,2.7,34,0.00,,---,0.00,VWS V14.01,2013-09-14 03:46:00,
2013-09-13 20:51:00,67.1,37.8,29.88,ESE,118,0.0,0.0,34,0.00,,---,0.00,VWS V14.01,2013-09-14 03:51:00,
2013-09-13 20:57:00,66.7,37.5,29.88,East,82,2.7,3.1,34,0.00,,---,0.00,VWS V14.01,2013-09-14 03:57:00,
2013-09-13 21:01:00,66.6,37.3,29.88,SE,125,2.7,3.1,34,0.00,,---,0.00,VWS V14.01,2013-09-14 04:01:00,
2013-09-13 21:02:00,66.6,37.3,29.88,ESE,109,2.7,2.7,34,0.00,,---,0.00,VWS V14.01,2013-09-14 04:02:00,
2013-09-13 21:03:00,66.4,37.2,29.88,ESE,109,2.2,2.7,34,0.00,,---,0.00,VWS V14.01,2013-09-14 04:03:00,
2013-09-13 21:05:00,66.4,37.2,29.88,East,83,2.2,3.1,34,0.00,,---,0.00,VWS V14.01,2013-09-14 04:05:00,
2013-09-13 21:07:00,66.2,37.0,29.88,East,79,3.6,4.0,34,0.00,,---,0.00,VWS V14.01,2013-09-14 04:07:00,
2013-09-13 21:08:00,66.0,38.3,29.88,East,81,3.6,4.0,36,0.00,,---,0.00,VWS V14.01,2013-09-14 04:08:00,
2013-09-13 21:13:00,65.8,38.2,29.88,East,90,0.0,0.0,36,0.00,,---,0.00,VWS V14.01,2013-09-14 04:13:00,
2013-09-13 21:19:00,65.5,37.8,29.88,East,98,0.0,0.0,36,0.00,,---,0.00,VWS V14.01,2013-09-14 04:19:00,
2013-09-13 21:25:00,64.9,37.4,29.88,East,98,4.0,4.9,36,0.00,,---,0.00,VWS V14.01,2013-09-14 04:25:00,
2013-09-13 21:31:00,64.4,36.9,29.88,ENE,71,3.6,3.6,36,0.00,,---,0.00,VWS V14.01,2013-09-14 04:31:00,
2013-09-13 21:36:00,63.7,36.2,29.88,NE,44,3.1,3.1,36,0.00,,---,0.00,VWS V14.01,2013-09-14 04:36:00,
2013-09-13 21:41:00,63.0,35.6,29.88,NE,44,2.2,2.2,36,0.00,,---,0.00,VWS V14.01,2013-09-14 04:41:00,
2013-09-13 21:47:00,62.6,35.3,29.88,NE,44,0.0,0.0,36,0.00,,---,0.00,VWS V14.01,2013-09-14 04:47:00,
2013-09-13 21:53:00,62.6,35.3,29.88,NE,44,0.0,0.0,36,0.00,,---,0.00,VWS V14.01,2013-09-14 04:53:00,
2013-09-13 21:58:00,62.6,35.3,29.88,SE,133,0.0,0.0,36,0.00,,---,0.00,VWS V14.01,2013-09-14 04:58:00,
2013-09-13 22:04:00,62.2,36.3,29.88,ENE,73,0.0,0.0,38,0.00,,---,0.00,VWS V14.01,2013-09-14 05:04:00,
2013-09-13 22:09:00,62.1,38.7,29.88,ENE,73,0.0,0.0,42,0.00,,---,0.00,VWS V14.01,2013-09-14 05:09:00,
2013-09-13 22:15:00,61.5,38.2,29.88,ENE,73,0.0,0.0,42,0.00,,---,0.00,VWS V14.01,2013-09-14 05:15:00,
2013-09-13 22:20:00,61.3,38.1,29.88,ESE,113,4.0,4.0,42,0.00,,---,0.00,VWS V14.01,2013-09-14 05:20:00,
2013-09-13 22:25:00,61.0,37.8,29.88,ESE,118,0.0,3.1,42,0.00,,---,0.00,VWS V14.01,2013-09-14 05:25:00,
2013-09-13 22:30:00,60.6,38.6,29.88,East,79,0.0,0.0,44,0.00,,---,0.00,VWS V14.01,2013-09-14 05:30:00,
2013-09-13 22:36:00,60.1,40.3,29.88,NE,43,2.7,3.6,48,0.00,,---,0.00,VWS V14.01,2013-09-14 05:36:00,
2013-09-13 22:42:00,59.9,40.2,29.88,East,91,2.7,4.0,48,0.00,,---,0.00,VWS V14.01,2013-09-14 05:42:00,
2013-09-13 22:47:00,59.9,40.2,29.88,ENE,71,3.6,3.6,48,0.00,,---,0.00,VWS V14.01,2013-09-14 05:47:00,
2013-09-13 22:53:00,59.7,40.0,29.88,ENE,71,0.0,0.0,48,0.00,,---,0.00,VWS V14.01,2013-09-14 05:53:00,
2013-09-13 22:58:00,59.5,39.8,29.88,ENE,71,0.0,0.0,48,0.00,,---,0.00,VWS V14.01,2013-09-14 05:58:00,
2013-09-13 23:03:00,59.4,39.7,29.88,ENE,71,0.0,0.0,48,0.00,,---,0.00,VWS V14.01,2013-09-14 06:03:00,
2013-09-13 23:09:00,59.4,40.7,29.88,ENE,71,0.0,0.0,50,0.00,,---,0.00,VWS V14.01,2013-09-14 06:09:00,
2013-09-13 23:15:00,59.2,40.6,29.88,ESE,105,0.0,0.0,50,0.00,,---,0.00,VWS V14.01,2013-09-14 06:15:00,
2013-09-13 23:21:00,59.2,40.6,29.88,ESE,105,0.0,0.0,50,0.00,,---,0.00,VWS V14.01,2013-09-14 06:21:00,
2013-09-13 23:26:00,58.8,40.2,29.88,East,91,0.0,0.0,50,0.00,,---,0.00,VWS V14.01,2013-09-14 06:26:00,
2013-09-13 23:32:00,58.5,39.9,29.88,East,84,0.0,0.0,50,0.00,,---,0.00,VWS V14.01,2013-09-14 06:32:00,
2013-09-13 23:38:00,58.5,39.9,29.88,East,79,0.0,0.0,50,0.00,,---,0.00,VWS V14.01,2013-09-14 06:38:00,
2013-09-13 23:43:00,58.3,40.8,29.88,East,79,0.0,0.0,52,0.00,,---,0.00,VWS V14.01,2013-09-14 06:43:00,
2013-09-13 23:49:00,57.9,40.4,29.88,East,79,0.0,0.0,52,0.00,,---,0.00,VWS V14.01,2013-09-14 06:49:00,
2013-09-13 23:54:00,57.9,40.4,29.88,East,79,0.0,0.0,52,0.00,,---,0.00,VWS V14.01,2013-09-14 06:54:00,